This is the latest recevied weather packets stored in our database for station/object KC0SIQ-13. If no packets are shown the sender has not sent any weather packets the latest 10 day(s).
| Time | Temp. | Humidity | Pressure | Rain* | Wind** | Luminosity | Snow |
|---|---|---|---|---|---|---|---|
| 1777486832 | 12.22° C | 48% | 1017.3 hPa | 0 mm | - | 531 W/m² | - |
| 1777486530 | 11.67° C | 49% | 1017 hPa | 0 mm | - | 479 W/m² | - |
| 1777486227 | 11.67° C | 49% | 1017 hPa | 0 mm | - | 340 W/m² | - |
| 1777485925 | 11.11° C | 49% | 1017.4 hPa | 0 mm | - | 309 W/m² | - |
| 1777485621 | 11.67° C | 50% | 1017.1 hPa | 0 mm | - | 317 W/m² | - |
| 1777485321 | 12.22° C | 47% | 1017.3 hPa | 0 mm | - | 375 W/m² | - |
| 1777485018 | 11.67° C | 48% | 1017.5 hPa | 0 mm | - | 264 W/m² | - |
| 1777484715 | 11.11° C | 47% | 1017.6 hPa | 0 mm | - | 236 W/m² | - |
| 1777484412 | 10.56° C | 47% | 1017.8 hPa | 0 mm | - | 206 W/m² | - |
| 1777484109 | 11.67° C | 47% | 1017.7 hPa | 0 mm | - | 201 W/m² | - |
| 1777483804 | 11.67° C | 49% | 1017.7 hPa | 0 mm | - | 184 W/m² | - |
| 1777483502 | 11.67° C | 48% | 1017.6 hPa | 0 mm | - | 127 W/m² | - |
| 1777483202 | 12.78° C | 44% | 1017.8 hPa | 0 mm | - | 100 W/m² | - |
| 1777482899 | 12.78° C | 50% | 1017.7 hPa | 0 mm | - | 109 W/m² | - |
| 1777482594 | 12.78° C | 50% | 1017.7 hPa | 0 mm | - | 134 W/m² | - |
| 1777482292 | 13.89° C | 51% | 1017.5 hPa | 0 mm | - | 184 W/m² | - |
| 1777481989 | 13.33° C | 52% | 1017.5 hPa | 0 mm | - | 216 W/m² | - |
| 1777481687 | 13.33° C | 54% | 1017.4 hPa | 0 mm | - | 270 W/m² | - |
| 1777481384 | 13.33° C | 52% | 1017.7 hPa | 0 mm | - | 258 W/m² | - |
| 1777481080 | 12.78° C | 53% | 1017.3 hPa | 0 mm | - | 259 W/m² | - |
| 1777480777 | 12.78° C | 55% | 1017.4 hPa | 0 mm | - | 219 W/m² | - |
| 1777480473 | 12.22° C | 54% | 1017.4 hPa | 0 mm | - | 220 W/m² | - |
| 1777480169 | 12.22° C | 55% | 1017.5 hPa | 0 mm | - | 219 W/m² | - |
| 1777479866 | 11.67° C | 56% | 1017.1 hPa | 0 mm | - | 216 W/m² | - |
| 1777479563 | 11.11° C | 57% | 1017.3 hPa | 0 mm | - | 232 W/m² | - |
* Rain latest hour (hover to see other rain measurements)
** Current wind speed in m/s (hover to see current wind gust speed)